Flag for Norway Weather past 2 weeks in Drammen, Norway

Now
43 °F

Passing clouds.


Feels Like: 33 °F
Forecast: 29 / 53 °F
Wind: 25 mph from Southwest

Location: Oslo / Fornebu

Current Time: Apr 27, 2015 at 1:40:42 PM

Latest Report: Apr 27, 2015 at 12:50 PM


Visibility: N/A

Pressure: 29.56 "Hg

Humidity: 53%

Dew point: 27 °F

Location of DrammenLocation

Historic Weather in Drammen — Graph

°F

Drammen temperature yesterday

Maximum temperature yesterday: 43 °F (at 12:50 PM)
Minimum temperature yesterday: 39 °F (at 12:50 AM)
Average temperature yesterday: 41 °F

Past Weeks' High & Low Weather Summary

 TemperatureHumidityPressure
High52 °F (Apr 18, 1:50 PM)100% (Apr 14, 3:20 AM)30.51 "Hg (Apr 14, 3:20 AM)
Low37 °F (Apr 13, 1:20 AM)42% (Apr 13, 10:20 AM)29.27 "Hg (Apr 25, 2:50 PM)
Average43 °F78%29.97 "Hg
* Reported Apr 12 12:20 PM — Apr 27 12:20 PM, Drammen, Weather by CustomWeather, © 2015

Note: Actual official high and low records may vary slightly from our data, if they occured in-between our weather recording intervals... More about our weather records

Advertising

Drammen weather history for previous 24 hours

 ConditionsComfort  
Time TempWeatherWind HumidityBarometerVisibility
12:20 PM
Mon, Apr 27
43 °FPassing clouds.24 mph49%29.53 "HgN/A
11:50 AM43 °FPassing clouds.24 mph61%29.53 "HgN/A
11:20 AM41 °FSprinkles. Partly sunny.24 mph66%29.53 "HgN/A
10:50 AM41 °FScattered clouds.22 mph66%29.53 "HgN/A
10:20 AM43 °FPassing clouds.24 mph66%29.50 "HgN/A
9:50 AM43 °FScattered clouds.24 mph66%29.50 "HgN/A
9:20 AM41 °FPassing clouds.24 mph76%29.50 "HgN/A
8:50 AM41 °FScattered clouds.25 mph70%29.50 "HgN/A
8:20 AM41 °FPassing clouds.25 mph70%29.50 "HgN/A
7:50 AM41 °FBroken clouds.23 mph76%29.50 "HgN/A
7:20 AM39 °FPassing clouds.21 mph75%29.50 "HgN/A
6:50 AM37 °FSprinkles. Partly sunny.N/A81%29.47 "HgN/A
5:50 AM41 °FPassing clouds.20 mph76%29.47 "HgN/A
5:20 AM41 °FPartly cloudy.28 mph70%29.47 "HgN/A
4:50 AM41 °FPassing clouds.29 mph66%29.47 "HgN/A
4:20 AM41 °FPassing clouds.30 mph66%29.47 "HgN/A
3:50 AM41 °FSprinkles. Passing clouds.31 mph70%29.47 "HgN/A
3:20 AM39 °FSprinkles. Partly cloudy.31 mph75%29.47 "HgN/A
2:50 AM41 °FPassing clouds.31 mph76%29.47 "HgN/A
2:20 AM41 °FPassing clouds.33 mph70%29.47 "HgN/A
1:50 AM41 °FLight rain. Passing clouds.31 mph76%29.47 "Hg6 mi
1:20 AM41 °FPassing clouds.35 mph76%29.47 "HgN/A
12:50 AM41 °FPassing clouds.35 mph76%29.47 "HgN/A
12:20 AM41 °FPassing clouds.31 mph70%29.47 "HgN/A
11:50 PM
Sun, Apr 26
41 °FPassing clouds.36 mph70%29.47 "HgN/A
11:20 PM41 °FPassing clouds.33 mph70%29.50 "HgN/A
10:50 PM39 °FSprinkles. Passing clouds.32 mph75%29.50 "HgN/A
10:20 PM41 °FPassing clouds.35 mph57%29.50 "HgN/A
9:50 PM41 °FScattered clouds.36 mph61%29.50 "HgN/A
9:20 PM41 °FScattered clouds.36 mph66%29.50 "HgN/A
8:50 PM41 °FPartly sunny.35 mph66%29.50 "HgN/A
8:20 PM41 °FPassing clouds.35 mph61%29.50 "HgN/A
7:50 PM43 °FSprinkles. Partly sunny.35 mph49%29.50 "HgN/A
7:20 PM41 °FPartly sunny.32 mph61%29.50 "HgN/A
6:50 PM41 °FPartly sunny.31 mph66%29.50 "HgN/A
6:20 PM43 °FPartly sunny.36 mph53%29.50 "HgN/A
5:50 PM41 °FPartly sunny.35 mph70%29.50 "HgN/A
5:20 PM41 °FScattered clouds.33 mph76%29.50 "HgN/A
4:50 PM39 °FSprinkles. Partly sunny.37 mph75%29.50 "HgN/A
4:20 PM41 °FPartly sunny.39 mph66%29.50 "HgN/A
3:50 PM41 °FSprinkles. Partly sunny.36 mph70%29.50 "HgN/A
3:20 PM41 °FSprinkles. Partly sunny.36 mph76%29.50 "HgN/A
2:50 PM41 °FBroken clouds.43 mph76%29.50 "HgN/A
2:20 PM43 °FPartly sunny.36 mph71%29.50 "HgN/A
1:50 PM43 °FPartly sunny.37 mph61%29.47 "HgN/A
1:20 PM43 °FScattered clouds.36 mph66%29.47 "HgN/A
Weather by CustomWeather, © 2015

See weather overviewHow to use our weather pages